Hourly Data Report for September 04, 2012

HALIFAX STANFIELD INT'L A
NOVA SCOTIA

44°52'48.060" N
63°30'00.050" W
145.40 m
8202250
71395
YHZ

Download Data

Hourly Data (September 2012)
Hourly Data Report for September 4, 2012
TIME
LST
Temp Definition
°C
Dew Point Definition
°C
Rel Hum Definition
%
Precip. Amount Definition
mm

Wind Dir Definition
10's deg

Wind Spd Definition
km/h
Visibility Definition
km
Stn Press Definition
kPa
Hmdx Definition


Wind Chill Definition


Weather Definition


00:00 13.5 11.1 85   27 7 24.1 100.33     Mainly Clear
01:00 12.8 11.3 91   28 6 24.1 100.34     Mainly Clear
02:00 12.6 12.4 99   31 19 24.1 100.31     Mainly Clear
03:00 13.4 13.4 100   30 13 24.1 100.30     Cloudy
04:00 13.7 13.7 100   33 13 24.1 100.31     Cloudy
05:00 14.1 14.1 100   33 9 24.1 100.30     Mostly Cloudy
06:00 14.0 14.0 100   31 9 24.1 100.31     Mainly Clear
07:00 14.5 14.4 99   30 9 24.1 100.32     Cloudy
08:00 15.5 14.5 94   32 7 24.1 100.32     Mainly Clear
09:00 17.8 14.8 83   31 9 24.1 100.31     Mainly Clear
10:00 19.3 14.6 74   27 6 24.1 100.29     Mainly Clear
11:00 20.9 13.9 64   28 7 24.1 100.25     Mainly Clear
12:00 22.9 12.4 52   32 11 24.1 100.19 25   Mostly Cloudy
13:00 22.9 11.3 48   31 4 24.1 100.13 25   Mostly Cloudy
14:00 23.8 11.8 47   27 9 24.1 100.04 26   Mostly Cloudy
15:00 24.0 12.5 49   34 7 24.1 100.01 27   Mostly Cloudy
16:00 23.9 14.2 55   26 20 24.1 100.01 27   Mostly Cloudy
17:00 21.7 14.6 64   22 17 24.1 100.02 25   Mostly Cloudy
18:00 20.4 14.4 68   23 11 24.1 100.05     Mainly Clear
19:00 19.1 14.3 74   1 7 24.1 100.05     Mainly Clear
20:00 17.7 13.7 77   2 6 24.1 100.08     Mainly Clear
21:00 17.9 13.1 73     0 24.1 100.04     Mainly Clear
22:00 15.8 13.5 86   20 7 24.1 100.06     Mainly Clear
23:00 16.8 13.0 78   19 7 24.1 100.04     Mostly Cloudy

Notes on Data Quality.

Legend

  • E = Estimated
  • M = Missing
  • NA = Not Available*
  • [empty] = Indicates an unobserved value
Date modified: